Flag for Canada Weather past 2 weeks in Whitehorse, Yukon, Canada

Now
54 °F

Broken clouds.


Feels Like: 51 °F
Forecast: 46 / 63 °F
Wind: 8 mph from Northwest

Location: Withehorse

Current Time: May 30, 2015 at 9:33:13 AM

Latest Report: May 30, 2015 at 9:00 AM


Visibility: 40 mi

Pressure: 30.07 "Hg

Humidity: 54%

Dew point: 37 °F

Location of WhitehorseLocation

Historic Weather in Whitehorse — Graph

°F

Whitehorse temperature yesterday

Maximum temperature yesterday: 75 °F (at 5:00 PM)
Minimum temperature yesterday: 39 °F (at 5:00 AM)
Average temperature yesterday: 60 °F

Past Weeks' High & Low Weather Summary

 TemperatureHumidityPressure
High81 °F (May 23, 4:00 PM)93% (May 27, 10:00 AM)30.37 "Hg (May 27, 10:00 AM)
Low39 °F (May 29, 5:00 AM)13% (May 16, 5:00 PM)29.83 "Hg (May 15, 5:00 PM)
Average61 °F40%30.09 "Hg
* Reported May 15 8:00 AM — May 30 8:00 AM, Whitehorse, Weather by CustomWeather, © 2015

Note: Actual official high and low records may vary slightly from our data, if they occured in-between our weather recording intervals... More about our weather records

Advertising

Whitehorse weather history for previous 24 hours

 ConditionsComfort  
Time TempWeatherWind HumidityBarometerVisibility
8:00 AM
Sat, May 30
50 °FBroken clouds.2 mph58%30.06 "Hg40 mi
7:00 AM48 °FBroken clouds.5 mph62%30.06 "Hg40 mi
6:00 AM45 °FBroken clouds.No wind71%30.07 "Hg40 mi
5:00 AM46 °FPassing clouds.2 mph66%30.06 "Hg40 mi
4:00 AM48 °FPassing clouds.No wind62%30.06 "Hg15 mi
3:00 AM52 °FPassing clouds.5 mph47%30.06 "Hg15 mi
2:00 AM52 °FPassing clouds.5 mph47%30.06 "Hg15 mi
1:00 AM57 °FPassing clouds.8 mph36%30.04 "Hg40 mi
12:00 AM61 °FPassing clouds.10 mph29%30.04 "Hg40 mi
11:00 PM
Fri, May 29
64 °FPassing clouds.6 mph28%30.04 "Hg40 mi
10:00 PM70 °FPassing clouds.6 mph23%30.04 "Hg40 mi
9:00 PM73 °FPassing clouds.5 mph17%30.04 "Hg40 mi
8:00 PM75 °FPassing clouds.6 mph16%30.06 "Hg40 mi
7:00 PM75 °FPassing clouds.5 mph16%30.07 "Hg40 mi
6:00 PM75 °FPassing clouds.3 mph16%30.09 "Hg40 mi
5:00 PM75 °FPassing clouds.3 mph18%30.11 "Hg40 mi
4:00 PM73 °FPassing clouds.2 mph17%30.13 "Hg40 mi
3:00 PM73 °FPassing clouds.5 mph20%30.15 "Hg40 mi
2:00 PM72 °FPassing clouds.6 mph22%30.16 "Hg40 mi
1:00 PM70 °FPassing clouds.3 mph21%30.18 "Hg40 mi
12:00 PM68 °FPassing clouds.5 mph23%30.20 "Hg40 mi
11:00 AM63 °FPassing clouds.2 mph27%30.23 "Hg40 mi
10:00 AM57 °FPassing clouds.2 mph39%30.24 "Hg40 mi
9:00 AM52 °FPassing clouds.2 mph44%30.26 "Hg40 mi
Weather by CustomWeather, © 2015

See weather overviewHow to use our weather pages